Simultaneous Nadir Overpasses (SNOs) Predictions

Prediction of SNOs between GOES-16 and NOAA-20 Satellite Orbit:

Table of predicted SNOs for the next 14.0 days since TLE Epoch: 11/23/2024
Index Date Time (GOES-16) GOES-16 Lat,Lon NOAA-20 Lat,Lon Distance(km) Time Diff (sec)
1 11/23/2024 18:37:33 -0.00, -75.22 -0.76, -78.73 399.47 80
2 11/24/2024 18:21:27 -0.00, -75.23 0.22, -74.18 118.68 80
3 11/26/2024 06:43:12 0.00, -75.23 0.94, -79.45 480.71 80
4 11/27/2024 06:21:45 0.00, -75.24 -0.06, -74.91 37.66 80
5 11/29/2024 18:24:54 -0.01, -75.29 -0.08, -75.67 43.60 80
6 11/30/2024 18:08:48 -0.01, -75.30 0.93, -71.13 475.16 80
7 12/02/2024 06:30:32 0.01, -75.31 0.27, -76.39 123.43 80
8 12/03/2024 06:09:07 0.01, -75.32 -0.79, -71.86 395.20 80
9 12/04/2024 18:31:01 -0.00, -75.36 -0.38, -77.16 204.40 80
10 12/05/2024 18:14:54 0.00, -75.38 0.64, -72.62 314.71 80
